"startDT [UTC]","vpos","CH4 [ppm]","stdev(CH4) [ppm]","CO2 [ppm]","stdev(CO2) [ppm]","H2O [ppm]","stdev(H2O)","p_LGR [torr]","T_LGR [C]","mt1_LGR [us]","mt2_LGR [us]","T_ECpre [C]","T_EC1 [C]","T_EC2 [C]","p_inlet [hPa]","p_in [hPa]","p_out [hPa]","T_inlet [C]","RH_inlet [%]","dwpt_inlet [C]","T_vent [C]","RH_vent [%]","dwpt_vent [C]","flow_vent [l min-1]","flow_inlet [l min-1]","dwpt_sample [C]","T_room [C]"
2013-05-21 00:00:00,0.0,1.8981,0.0007,407.99,0.26,16.0,20.5,138.25,21.61,24.62,36.33,0.04,-272.75,-272.75,-33,543,-925,15.5,12.4,-13.4,15.7,12.6,-13.0,5.73,2.45,-28.0,21.8
2013-05-21 00:01:00,0.0,1.8978,0.0008,408.05,0.29,23.0,28.7,138.25,21.61,24.62,36.33,0.04,-272.75,-272.75,-33,543,-925,15.5,12.7,-13.1,15.7,12.9,-12.7,5.73,2.47,-28.0,21.8
2013-05-21 00:02:00,0.0,1.8975,0.0008,408.05,0.27,19.6,27.1,138.25,21.61,24.62,36.33,0.04,-272.74,-272.75,-33,543,-925,15.5,13.0,-12.8,15.7,13.2,-12.4,5.73,2.48,-28.0,21.8
2013-05-21 00:03:00,0.0,1.8983,0.0008,408.10,0.26,23.2,31.4,138.25,21.61,24.62,36.32,0.04,-272.75,-272.75,-33,543,-925,15.5,13.5,-12.3,15.8,13.8,-11.9,5.73,2.47,-28.0,21.9
2013-05-21 00:04:00,0.0,1.8980,0.0008,408.03,0.24,20.7,26.6,138.25,21.61,24.62,36.33,0.04,-272.75,-272.75,-33,543,-926,15.5,13.0,-12.8,15.8,13.3,-12.4,5.73,2.46,-28.0,21.9
2013-05-21 00:05:00,0.0,1.8977,0.0007,408.03,0.26,28.5,26.4,138.25,21.61,24.62,36.32,0.04,-272.75,-272.75,-33,543,-925,15.5,12.4,-13.4,15.8,12.6,-13.0,5.73,2.44,-28.0,21.9
2013-05-21 00:06:00,0.0,1.8978,0.0008,408.05,0.29,25.3,27.3,138.25,21.62,24.62,36.33,0.04,-272.74,-272.75,-33,543,-925,15.6,12.9,-12.8,15.8,13.1,-12.5,5.73,2.42,-28.0,21.9
2013-05-21 00:07:00,0.0,1.8976,0.0008,408.12,0.27,17.6,25.5,138.25,21.62,24.62,36.33,0.04,-272.75,-272.75,-33,543,-925,15.6,13.7,-12.1,15.8,13.9,-11.7,5.73,2.42,-28.0,21.8
2013-05-21 00:08:00,0.0,1.8979,0.0009,408.17,0.27,24.2,27.8,138.25,21.62,24.61,36.33,0.04,-272.75,-272.75,-33,543,-925,15.6,13.7,-12.1,15.8,13.9,-11.7,5.73,2.42,-28.0,21.8
2013-05-21 00:09:00,0.0,1.8978,0.0009,408.05,0.28,18.4,23.0,138.25,21.62,24.62,36.33,0.04,-272.75,-272.75,-33,543,-925,15.6,13.6,-12.2,15.8,13.8,-11.8,5.73,2.43,-28.0,21.9
2013-05-21 00:10:00,0.0,1.8977,0.0010,408.12,0.22,18.4,25.4,138.25,21.62,24.62,36.32,0.04,-272.75,-272.75,-33,544,-925,15.6,13.8,-12.0,15.8,14.0,-11.6,5.73,2.45,-28.0,21.9
2013-05-21 00:11:00,0.0,1.8976,0.0008,408.05,0.26,16.2,19.8,138.25,21.62,24.62,36.33,0.04,-272.75,-272.75,-33,544,-925,15.6,14.0,-11.7,15.9,14.3,-11.3,5.73,2.46,-27.9,21.9
2013-05-21 00:12:00,0.0,1.8979,0.0008,408.18,0.30,16.8,23.1,138.25,21.62,24.62,36.33,0.04,-272.75,-272.75,-33,544,-925,15.7,13.8,-11.9,15.9,14.1,-11.5,5.73,2.47,-27.9,21.9
2013-05-21 00:13:00,0.0,1.8976,0.0009,408.15,0.29,23.1,27.8,138.25,21.62,24.62,36.33,0.04,-272.75,-272.75,-33,544,-925,15.7,13.6,-12.1,15.9,13.8,-11.7,5.73,2.47,-27.9,21.8
2013-05-21 00:14:00,0.0,1.8975,0.0007,408.23,0.27,14.4,23.6,138.25,21.63,24.62,36.33,0.04,-272.75,-272.75,-33,544,-925,15.7,13.5,-12.2,15.9,13.8,-11.8,5.73,2.46,-27.9,21.8
2013-05-21 00:15:00,0.0,1.8977,0.0009,408.29,0.30,22.3,27.9,138.25,21.63,24.62,36.32,0.04,-272.75,-272.75,-33,544,-925,15.7,13.4,-12.2,15.9,13.7,-11.8,5.73,2.45,-27.9,21.8
2013-05-21 00:16:00,0.0,1.8977,0.0010,408.13,0.30,24.9,30.4,138.25,21.63,24.62,36.32,0.04,-272.75,-272.75,-33,544,-926,15.7,13.7,-12.0,15.9,13.9,-11.7,5.73,2.43,-27.9,21.9
2013-05-21 00:17:00,0.0,1.8981,0.0008,408.04,0.26,17.1,22.1,138.25,21.63,24.62,36.33,0.04,-272.75,-272.75,-33,544,-925,15.7,13.7,-12.0,15.9,13.9,-11.6,5.73,2.42,-27.9,21.9
2013-05-21 00:18:00,0.0,1.8983,0.0009,408.15,0.24,18.8,24.1,138.25,21.64,24.62,36.32,0.04,-272.75,-272.75,-33,544,-925,15.7,13.6,-12.0,15.9,13.9,-11.6,5.73,2.42,-28.0,21.9
2013-05-21 00:19:00,0.0,1.8982,0.0009,407.97,0.24,19.0,27.6,138.25,21.64,24.62,36.33,0.04,-272.75,-272.75,-33,544,-925,15.8,13.8,-11.9,16.0,14.0,-11.5,5.73,2.42,-27.9,21.9
2013-05-21 00:20:00,0.0,1.8980,0.0009,408.05,0.25,15.4,26.0,138.25,21.64,24.62,36.33,0.04,-272.74,-272.75,-33,544,-925,15.7,13.7,-12.0,16.0,13.9,-11.6,5.73,2.43,-27.9,21.9
2013-05-21 00:21:00,0.0,1.8982,0.0010,408.13,0.25,17.7,27.6,138.25,21.64,24.62,36.32,0.04,-272.75,-272.75,-33,544,-925,15.8,13.6,-12.0,16.0,13.9,-11.6,5.73,2.45,-27.9,21.9
2013-05-21 00:22:00,0.0,1.8976,0.0008,408.00,0.28,14.0,22.4,138.25,21.64,24.62,36.33,0.04,-272.75,-272.75,-33,544,-925,15.8,13.7,-12.0,16.0,13.9,-11.6,5.73,2.46,-28.0,21.9
2013-05-21 00:23:00,0.0,1.8976,0.0010,408.03,0.28,22.9,25.1,138.25,21.64,24.62,36.33,0.04,-272.75,-272.75,-33,544,-925,15.8,13.5,-12.1,16.0,13.8,-11.7,5.73,2.47,-27.9,21.9
2013-05-21 00:24:00,0.0,1.8980,0.0009,408.17,0.21,23.8,28.6,138.25,21.65,24.62,36.32,0.04,-272.75,-272.75,-33,544,-926,15.8,13.5,-12.1,16.0,13.8,-11.7,5.73,2.47,-27.9,21.9
2013-05-21 00:25:00,0.0,1.8984,0.0009,408.16,0.30,18.5,25.3,138.25,21.65,24.62,36.33,0.04,-272.76,-272.75,-33,544,-925,15.8,13.7,-11.9,16.0,13.9,-11.5,5.73,2.46,-27.9,22.0
2013-05-21 00:26:00,0.0,1.8980,0.0008,408.17,0.27,20.8,26.5,138.25,21.65,24.62,36.32,0.04,-272.75,-272.75,-33,545,-925,15.8,13.6,-12.0,16.0,13.9,-11.6,5.73,2.45,-27.9,22.0
2013-05-21 00:27:00,0.0,1.8982,0.0009,408.12,0.33,18.4,22.3,138.25,21.65,24.62,36.33,0.04,-272.75,-272.75,-33,545,-925,15.8,13.4,-12.1,16.0,13.7,-11.7,5.73,2.44,-27.9,22.0
2013-05-21 00:28:00,0.0,1.8979,0.0009,408.11,0.30,19.2,27.4,138.25,21.65,24.62,36.33,0.04,-272.75,-272.75,-33,545,-926,15.8,13.5,-12.1,16.0,13.7,-11.7,5.73,2.43,-27.9,22.0
2013-05-21 00:29:00,0.0,1.8981,0.0009,407.96,0.30,16.8,24.5,138.25,21.65,24.62,36.33,0.04,-272.75,-272.75,-33,545,-926,15.8,13.5,-12.1,16.1,13.7,-11.7,5.73,2.42,-27.9,22.0
2013-05-21 00:30:00,0.0,1.8980,0.0009,408.05,0.27,23.3,27.4,138.25,21.65,24.62,36.33,0.04,-272.75,-272.75,-33,545,-925,15.9,13.5,-12.0,16.1,13.8,-11.6,5.73,2.42,-27.9,22.0
2013-05-21 00:31:00,0.0,1.8979,0.0009,408.05,0.24,17.8,23.2,138.25,21.65,24.62,36.33,0.04,-272.75,-272.75,-33,545,-926,15.9,13.6,-11.9,16.1,13.9,-11.5,5.73,2.42,-27.9,22.0
2013-05-21 00:32:00,0.0,1.8978,0.0008,408.03,0.29,15.9,21.2,138.25,21.66,24.62,36.33,0.04,-272.75,-272.75,-33,545,-925,15.9,13.6,-11.9,16.1,13.8,-11.6,5.73,2.44,-27.9,22.0
2013-05-21 00:33:00,0.0,1.8979,0.0008,408.09,0.27,21.7,25.8,138.25,21.66,24.62,36.33,0.04,-272.74,-272.75,-33,545,-925,15.9,13.7,-11.8,16.1,14.0,-11.4,5.73,2.44,-27.9,22.0
2013-05-21 00:34:00,0.0,1.8978,0.0009,408.01,0.28,21.7,27.8,138.25,21.66,24.62,36.33,0.04,-272.75,-272.75,-33,545,-926,15.9,13.7,-11.8,16.1,14.0,-11.4,5.73,2.46,-27.9,22.0
2013-05-21 00:35:00,0.0,1.8982,0.0009,408.09,0.28,16.9,20.9,138.25,21.66,24.62,36.33,0.04,-272.75,-272.75,-33,545,-925,15.9,14.0,-11.6,16.1,14.2,-11.2,5.73,2.47,-27.9,22.0
2013-05-21 00:36:00,0.0,1.8978,0.0009,408.04,0.27,18.9,27.4,138.25,21.66,24.62,36.34,0.04,-272.75,-272.75,-33,545,-926,15.9,14.2,-11.4,16.1,14.4,-11.0,5.73,2.47,-27.9,22.0
2013-05-21 00:37:00,0.0,1.8982,0.0008,407.99,0.29,25.7,34.6,138.25,21.66,24.62,36.34,0.04,-272.75,-272.75,-33,545,-926,15.9,14.2,-11.4,16.1,14.4,-11.0,5.73,2.47,-27.9,22.0
2013-05-21 00:38:00,0.0,1.8979,0.0010,407.95,0.34,16.7,23.6,138.25,21.66,24.62,36.33,0.04,-272.75,-272.75,-33,545,-926,15.9,14.2,-11.4,16.1,14.4,-11.0,5.73,2.46,-27.9,22.0
2013-05-21 00:39:00,0.0,1.8981,0.0008,408.07,0.23,17.2,25.5,138.25,21.67,24.62,36.33,0.04,-272.75,-272.75,-33,545,-926,15.9,14.0,-11.5,16.2,14.3,-11.1,5.73,2.45,-27.9,22.0
2013-05-21 00:40:00,0.0,1.8979,0.0008,407.89,0.26,19.1,25.8,138.25,21.67,24.62,36.34,0.04,-272.75,-272.75,-33,545,-925,16.0,13.8,-11.7,16.2,14.1,-11.3,5.73,2.43,-27.9,22.1
2013-05-21 00:41:00,0.0,1.8983,0.0009,408.07,0.31,17.1,23.5,138.25,21.67,24.62,36.33,0.04,-272.75,-272.75,-33,545,-926,16.0,13.7,-11.8,16.2,14.0,-11.4,5.73,2.42,-27.8,22.1
2013-05-21 00:42:00,0.0,1.8982,0.0007,407.96,0.27,19.7,24.9,138.25,21.67,24.62,36.34,0.04,-272.75,-272.75,-33,545,-926,16.0,13.6,-11.9,16.2,13.8,-11.5,5.73,2.42,-27.8,22.0
2013-05-21 00:43:00,0.0,1.8981,0.0009,408.04,0.29,17.5,31.5,138.25,21.68,24.62,36.33,0.04,-272.75,-272.75,-33,545,-926,16.0,13.7,-11.8,16.2,13.9,-11.4,5.73,2.42,-27.8,22.0
2013-05-21 00:44:00,0.0,1.8981,0.0009,407.99,0.27,22.3,30.5,138.25,21.68,24.62,36.34,0.04,-272.75,-272.75,-33,545,-926,16.0,13.6,-11.9,16.2,13.8,-11.5,5.73,2.43,-27.8,22.1
2013-05-21 00:45:00,0.0,1.8979,0.0009,407.96,0.27,22.5,25.5,138.25,21.68,24.62,36.33,0.04,-272.75,-272.75,-33,545,-926,16.0,13.8,-11.7,16.2,14.0,-11.3,5.73,2.43,-27.8,22.1
2013-05-21 00:46:00,0.0,1.8982,0.0009,408.04,0.24,17.0,24.9,138.25,21.68,24.62,36.33,0.04,-272.75,-272.75,-33,545,-926,16.0,13.9,-11.6,16.2,14.1,-11.2,5.73,2.44,-27.8,22.1
2013-05-21 00:47:00,0.0,1.8980,0.0007,408.09,0.24,20.5,23.0,138.25,21.69,24.62,36.33,0.04,-272.75,-272.75,-33,545,-926,16.0,13.6,-11.8,16.2,13.9,-11.4,5.73,2.46,-27.8,22.1
2013-05-21 00:48:00,0.0,1.8979,0.0008,408.04,0.26,22.6,29.5,138.25,21.69,24.62,36.33,0.04,-272.75,-272.75,-33,546,-925,16.0,13.6,-11.8,16.2,13.8,-11.5,5.73,2.47,-27.8,22.1
2013-05-21 00:49:00,0.0,1.8985,0.0012,408.05,0.40,16.3,25.4,138.25,21.69,24.62,36.33,0.04,-272.75,-272.75,-33,546,-926,16.0,13.7,-11.7,16.2,13.9,-11.3,5.73,2.47,-27.8,22.1
2013-05-21 00:50:00,0.0,1.8986,0.0008,407.94,0.34,20.1,27.2,138.25,21.69,24.62,36.33,0.04,-272.75,-272.75,-33,545,-926,16.0,13.5,-11.9,16.2,13.7,-11.5,5.73,2.46,-27.8,22.0
2013-05-21 00:51:00,0.0,1.8983,0.0008,408.00,0.29,13.9,21.0,138.25,21.70,24.62,36.33,0.04,-272.75,-272.75,-34,546,-926,16.0,13.4,-12.0,16.3,13.6,-11.6,5.73,2.45,-27.8,22.1
2013-05-21 00:52:00,0.0,1.8980,0.0009,407.96,0.23,18.7,30.3,138.25,21.70,24.62,36.33,0.04,-272.75,-272.75,-33,545,-926,16.0,13.5,-11.9,16.3,13.8,-11.5,5.73,2.44,-27.8,22.1
2013-05-21 00:53:00,0.0,1.8983,0.0008,408.06,0.27,20.2,23.3,138.25,21.70,24.62,36.33,0.04,-272.75,-272.75,-33,546,-926,16.0,13.8,-11.6,16.3,14.1,-11.2,5.73,2.42,-27.8,22.0
2013-05-21 00:54:00,0.0,1.8988,0.0007,408.07,0.32,16.6,22.4,138.25,21.71,24.61,36.33,0.04,-272.75,-272.75,-33,546,-926,16.0,13.8,-11.7,16.3,14.0,-11.2,5.73,2.42,-27.8,22.0
2013-05-21 00:55:00,0.0,1.8987,0.0008,408.12,0.23,16.2,22.3,138.25,21.71,24.62,36.33,0.04,-272.75,-272.75,-33,546,-926,16.0,13.6,-11.8,16.3,13.8,-11.4,5.73,2.42,-27.8,22.1
2013-05-21 00:56:00,0.0,1.8983,0.0008,408.05,0.26,16.8,21.0,138.25,21.71,24.62,36.33,0.04,-272.75,-272.75,-33,546,-926,16.1,13.6,-11.8,16.3,13.8,-11.4,5.73,2.43,-27.8,22.1
2013-05-21 00:57:00,0.0,1.8984,0.0010,408.09,0.29,23.5,28.3,138.25,21.72,24.62,36.32,0.04,-272.75,-272.75,-33,546,-926,16.1,13.5,-11.9,16.3,13.7,-11.5,5.73,2.43,-27.8,22.1
2013-05-21 00:58:00,0.0,1.8982,0.0009,408.07,0.30,15.3,27.3,138.25,21.72,24.62,36.33,0.04,-272.75,-272.75,-34,546,-926,16.1,13.4,-11.9,16.3,13.7,-11.5,5.73,2.44,-27.8,22.1
2013-05-21 00:59:00,0.0,1.8983,0.0008,408.13,0.27,15.3,24.1,138.25,21.72,24.62,36.32,0.04,-272.75,-272.75,-34,546,-926,16.1,13.6,-11.7,16.3,13.8,-11.4,5.73,2.46,-27.8,22.1
2013-05-21 01:00:00,0.0,1.8986,0.0009,408.03,0.24,17.3,28.9,138.25,21.72,24.62,36.33,0.22,-271.43,-271.64,-34,546,-926,16.1,13.6,-11.7,16.3,13.9,-11.3,5.42,2.53,-31.9,22.1
2013-05-21 01:01:00,0.0,1.8983,0.0012,408.04,0.31,18.9,26.0,138.25,21.72,24.62,36.33,0.04,-272.75,-272.75,-33,546,-926,16.1,13.6,-11.7,16.3,13.9,-11.4,5.73,2.47,-27.8,22.1
2013-05-21 01:02:00,0.0,1.8979,0.0009,408.01,0.33,23.2,25.0,138.25,21.73,24.62,36.33,0.04,-272.75,-272.75,-33,546,-925,16.1,13.4,-11.9,16.3,13.7,-11.5,5.73,2.46,-27.8,22.1
2013-05-21 01:03:00,0.0,1.8985,0.0008,408.00,0.25,17.6,23.8,138.25,21.73,24.62,36.33,0.04,-272.75,-272.75,-33,546,-926,16.1,13.5,-11.8,16.4,13.7,-11.4,5.73,2.45,-27.8,22.2
2013-05-21 01:04:00,0.0,1.8982,0.0009,408.11,0.26,19.3,24.1,138.25,21.73,24.62,36.33,0.04,-272.75,-272.75,-33,546,-926,16.1,13.6,-11.8,16.4,13.8,-11.4,5.73,2.44,-27.7,22.2
2013-05-21 01:05:00,0.0,1.8986,0.0009,408.00,0.24,19.2,25.1,138.25,21.74,24.62,36.33,0.04,-272.75,-272.75,-34,546,-926,16.1,13.5,-11.8,16.4,13.7,-11.5,5.73,2.43,-27.8,22.2
2013-05-21 01:06:00,0.0,1.8985,0.0009,408.00,0.28,21.1,26.2,138.25,21.74,24.62,36.33,0.04,-272.75,-272.75,-34,546,-926,16.1,13.5,-11.8,16.4,13.7,-11.5,5.73,2.42,-27.8,22.1
2013-05-21 01:07:00,0.0,1.8985,0.0008,408.01,0.29,19.3,28.0,138.25,21.74,24.62,36.33,0.22,-271.42,-271.64,-34,546,-926,16.2,13.5,-11.8,16.4,13.7,-11.4,5.42,2.48,-31.8,22.1
2013-05-21 01:08:00,0.0,1.8985,0.0009,408.08,0.25,16.0,20.5,138.25,21.74,24.62,36.33,0.04,-272.75,-272.75,-33,546,-926,16.2,13.6,-11.7,16.4,13.8,-11.3,5.73,2.42,-27.7,22.1
2013-05-21 01:09:00,0.0,1.8985,0.0010,408.05,0.27,21.1,25.2,138.25,21.75,24.62,36.33,0.04,-272.75,-272.75,-33,546,-926,16.2,13.5,-11.8,16.4,13.7,-11.5,5.73,2.42,-27.7,22.2
2013-05-21 01:10:00,0.0,1.8984,0.0008,408.15,0.26,16.9,22.0,138.25,21.75,24.62,36.33,0.04,-272.75,-272.75,-33,546,-926,16.2,13.7,-11.7,16.4,13.9,-11.3,5.73,2.43,-27.7,22.2
2013-05-21 01:11:00,0.0,1.8988,0.0009,408.08,0.29,17.0,26.3,138.25,21.75,24.62,36.33,0.04,-272.75,-272.75,-33,546,-926,16.2,13.7,-11.6,16.4,14.0,-11.2,5.73,2.44,-27.7,22.2
2013-05-21 01:12:00,0.0,1.8985,0.0009,408.02,0.26,16.7,22.0,138.25,21.75,24.62,36.34,0.04,-272.75,-272.75,-34,546,-926,16.2,13.5,-11.8,16.4,13.7,-11.4,5.73,2.45,-27.7,22.2
2013-05-21 01:13:00,0.0,1.8984,0.0009,408.08,0.24,15.9,24.6,138.25,21.76,24.62,36.33,0.04,-272.75,-272.75,-34,546,-926,16.2,13.4,-11.9,16.4,13.7,-11.5,5.73,2.45,-27.7,22.2
2013-05-21 01:14:00,0.0,1.8984,0.0009,408.03,0.32,12.9,19.8,138.25,21.76,24.62,36.33,0.04,-272.74,-272.75,-34,546,-926,16.2,13.0,-12.3,16.4,13.2,-11.9,5.73,2.47,-27.7,22.2
2013-05-21 01:15:00,0.0,1.8987,0.0008,408.07,0.28,18.6,24.7,138.25,21.76,24.62,36.33,0.04,-272.75,-272.75,-34,546,-926,16.2,12.8,-12.5,16.4,13.0,-12.0,5.73,2.46,-27.7,22.2
2013-05-21 01:16:00,0.0,1.8986,0.0009,408.02,0.27,11.9,19.3,138.25,21.76,24.62,36.33,0.04,-272.75,-272.75,-34,546,-926,16.2,12.6,-12.6,16.4,12.8,-12.2,5.73,2.46,-27.7,22.2
2013-05-21 01:17:00,0.0,1.8987,0.0008,408.08,0.27,17.2,24.0,138.25,21.77,24.62,36.33,0.04,-272.75,-272.75,-33,546,-926,16.2,12.3,-12.9,16.4,12.5,-12.5,5.73,2.45,-27.7,22.2
2013-05-21 01:18:00,0.0,1.8987,0.0009,407.95,0.27,15.5,23.3,138.25,21.77,24.61,36.33,0.04,-272.75,-272.75,-33,546,-926,16.2,12.4,-12.9,16.4,12.5,-12.5,5.73,2.44,-27.7,22.1
2013-05-21 01:19:00,0.0,1.8984,0.0009,407.98,0.31,17.7,25.7,138.25,21.77,24.62,36.33,0.04,-272.75,-272.75,-34,546,-926,16.2,12.4,-12.8,16.4,12.6,-12.4,5.73,2.43,-27.7,22.1
2013-05-21 01:20:00,1.0,1.8853,0.0094,390.49,12.04,12.7,20.5,138.25,21.77,24.62,36.35,0.04,-272.75,-272.75,-34,639,-926,16.2,12.4,-12.8,16.4,12.6,-12.5,5.73,2.43,-27.7,22.1
2013-05-21 01:21:00,1.0,1.8745,0.0009,377.05,0.26,5.8,14.3,138.25,21.77,24.62,36.35,0.04,-272.75,-272.75,-34,638,-926,16.2,12.4,-12.8,16.5,12.7,-12.4,5.73,2.42,-27.7,22.2
2013-05-21 01:22:00,1.0,1.8748,0.0008,376.97,0.22,5.5,16.7,138.25,21.78,24.62,36.35,0.04,-272.75,-272.75,-34,638,-926,16.2,12.4,-12.8,16.5,12.6,-12.5,5.73,2.42,-27.7,22.2
2013-05-21 01:23:00,1.0,1.8749,0.0009,377.00,0.29,2.6,7.9,138.25,21.78,24.62,36.34,0.04,-272.75,-272.75,-34,638,-926,16.2,12.2,-13.0,16.5,12.4,-12.6,5.73,2.42,-27.7,22.1
2013-05-21 01:24:00,1.0,1.8751,0.0008,377.03,0.25,4.7,14.4,138.25,21.78,24.62,36.35,0.04,-272.74,-272.75,-34,638,-926,16.3,12.3,-12.8,16.5,12.5,-12.5,5.73,2.43,-27.7,22.2
2013-05-21 01:25:00,0.0,1.8882,0.0091,394.08,12.11,10.9,18.6,138.25,21.79,24.62,36.34,0.04,-272.75,-272.75,-34,544,-926,16.3,12.2,-12.9,16.5,12.4,-12.6,5.73,2.39,-27.7,22.2
2013-05-21 01:26:00,0.0,1.8986,0.0008,407.86,0.32,10.0,16.8,138.25,21.79,24.62,36.34,0.04,-272.75,-272.75,-34,545,-926,16.3,12.2,-12.9,16.5,12.4,-12.6,5.73,2.44,-27.7,22.2
2013-05-21 01:27:00,0.0,1.8984,0.0009,407.99,0.28,16.0,22.7,138.25,21.79,24.62,36.33,0.04,-272.75,-272.75,-34,545,-926,16.3,12.2,-13.0,16.5,12.4,-12.6,5.73,2.45,-27.6,22.2
2013-05-21 01:28:00,0.0,1.8985,0.0012,407.99,0.25,16.4,21.9,138.25,21.80,24.62,36.33,0.04,-272.75,-272.75,-34,545,-926,16.3,12.2,-12.9,16.5,12.4,-12.5,5.73,2.46,-27.6,22.3
2013-05-21 01:29:00,0.0,1.8988,0.0008,408.08,0.32,17.5,25.8,138.25,21.80,24.62,36.33,0.04,-272.75,-272.75,-34,545,-926,16.3,12.2,-13.0,16.5,12.3,-12.6,5.73,2.45,-27.7,22.3
2013-05-21 01:30:00,0.0,1.8990,0.0009,407.98,0.23,14.3,22.4,138.25,21.80,24.61,36.33,0.04,-272.75,-272.76,-34,545,-926,16.3,12.2,-13.0,16.5,12.3,-12.6,5.73,2.46,-27.6,22.3
2013-05-21 01:31:00,0.0,1.8985,0.0009,407.88,0.27,21.6,32.1,138.25,21.81,24.62,36.34,0.04,-272.75,-272.75,-34,545,-926,16.3,12.2,-13.0,16.6,12.4,-12.6,5.73,2.46,-27.7,22.3
2013-05-21 01:32:00,0.0,1.8991,0.0010,407.95,0.27,11.5,17.9,138.25,21.82,24.61,36.33,0.04,-272.75,-272.75,-34,545,-926,16.3,12.2,-12.9,16.6,12.4,-12.5,5.73,2.45,-27.6,22.3
2013-05-21 01:33:00,0.0,1.8996,0.0008,408.02,0.33,11.6,20.5,138.25,21.82,24.62,36.33,0.04,-272.76,-272.75,-34,545,-926,16.3,12.3,-12.8,16.6,12.5,-12.4,5.73,2.45,-27.7,22.2
2013-05-21 01:34:00,0.0,1.8992,0.0009,408.06,0.27,14.7,24.9,138.25,21.83,24.62,36.33,0.04,-272.75,-272.75,-34,545,-926,16.4,12.3,-12.8,16.6,12.5,-12.4,5.73,2.45,-27.6,22.2
2013-05-21 01:35:00,0.0,1.8992,0.0009,408.03,0.31,9.7,17.7,138.25,21.84,24.62,36.33,0.04,-272.75,-272.75,-34,545,-926,16.4,12.1,-13.0,16.6,12.4,-12.6,5.73,2.44,-27.6,22.3
2013-05-21 01:36:00,0.0,1.8993,0.0008,408.02,0.33,11.6,19.5,138.25,21.84,24.61,36.33,0.04,-272.75,-272.75,-34,545,-926,16.4,11.8,-13.3,16.6,12.1,-12.8,5.73,2.43,-27.6,22.2
2013-05-21 01:37:00,0.0,1.8993,0.0010,407.99,0.27,10.7,21.2,138.25,21.84,24.62,36.33,0.04,-272.75,-272.75,-34,545,-926,16.4,11.8,-13.3,16.6,12.0,-12.9,5.73,2.43,-27.6,22.2
2013-05-21 01:38:00,0.0,1.8988,0.0009,408.08,0.30,12.4,25.0,138.24,21.84,24.62,36.33,0.04,-272.75,-272.75,-34,545,-926,16.4,11.9,-13.1,16.6,12.2,-12.7,5.73,2.42,-27.6,22.2
2013-05-21 01:39:00,0.0,1.8991,0.0009,408.12,0.31,11.5,17.2,138.25,21.84,24.62,36.32,0.04,-272.75,-272.76,-34,546,-926,16.4,11.9,-13.2,16.6,12.1,-12.8,5.73,2.43,-27.6,22.3
2013-05-21 01:40:00,0.0,1.8993,0.0010,408.01,0.29,15.6,24.1,138.25,21.85,24.61,36.33,0.04,-272.75,-272.75,-34,546,-926,16.4,11.9,-13.2,16.6,12.1,-12.8,5.73,2.42,-27.6,22.3
2013-05-21 01:41:00,0.0,1.8994,0.0008,408.02,0.29,9.3,17.0,138.25,21.85,24.62,36.33,0.04,-272.75,-272.75,-34,546,-926,16.4,11.9,-13.2,16.6,12.1,-12.8,5.73,2.43,-27.6,22.3
2013-05-21 01:42:00,0.0,1.8995,0.0009,407.90,0.25,13.0,22.3,138.25,21.86,24.62,36.33,0.22,-271.40,-271.80,-34,546,-926,16.4,11.7,-13.3,16.6,11.9,-13.0,5.42,2.53,-31.7,22.3
2013-05-21 01:43:00,0.0,1.8992,0.0009,408.04,0.26,13.7,22.5,138.25,21.86,24.62,36.33,0.04,-272.75,-272.75,-34,546,-926,16.4,11.7,-13.4,16.6,11.9,-13.0,5.73,2.44,-27.6,22.3
2013-05-21 01:44:00,0.0,1.8995,0.0008,408.01,0.29,9.4,17.6,138.24,21.86,24.61,36.33,0.04,-272.75,-272.75,-34,546,-926,16.4,11.6,-13.5,16.6,11.8,-13.1,5.73,2.45,-27.6,22.2
2013-05-21 01:45:00,0.0,1.8991,0.0009,408.08,0.33,11.2,17.6,138.25,21.86,24.62,36.32,0.04,-272.75,-272.75,-34,546,-926,16.4,11.7,-13.4,16.7,11.9,-13.0,5.73,2.46,-27.6,22.2
2013-05-21 01:46:00,0.0,1.8993,0.0007,408.15,0.27,12.0,17.5,138.24,21.87,24.61,36.32,0.04,-272.76,-272.75,-34,546,-926,16.4,11.6,-13.4,16.7,11.8,-13.0,5.73,2.46,-27.6,22.3
2013-05-21 01:47:00,0.0,1.8992,0.0009,408.01,0.28,7.5,18.3,138.25,21.87,24.62,36.33,0.04,-272.75,-272.75,-34,546,-926,16.5,11.6,-13.4,16.7,11.8,-13.0,5.73,2.46,-27.6,22.3
2013-05-21 01:48:00,0.0,1.8990,0.0008,408.06,0.27,5.9,13.3,138.24,21.87,24.62,36.33,0.04,-272.75,-272.75,-34,546,-926,16.5,11.6,-13.4,16.7,11.8,-13.0,5.73,2.46,-27.6,22.3
2013-05-21 01:49:00,0.0,1.8992,0.0010,407.92,0.32,14.9,24.8,138.25,21.88,24.62,36.33,0.04,-272.75,-272.75,-34,546,-926,16.5,11.6,-13.4,16.7,11.8,-13.0,5.73,2.45,-27.6,22.4
2013-05-21 01:50:00,0.0,1.8993,0.0008,407.95,0.25,9.9,19.2,138.24,21.88,24.62,36.34,0.04,-272.75,-272.75,-34,546,-926,16.4,11.6,-13.5,16.7,11.8,-13.1,5.73,2.45,-27.6,22.4
2013-05-21 01:51:00,0.0,1.8995,0.0008,407.96,0.28,6.7,15.4,138.25,21.89,24.61,36.33,0.04,-272.75,-272.75,-34,546,-926,16.4,11.6,-13.5,16.7,11.8,-13.1,5.73,2.44,-27.6,22.4
2013-05-21 01:52:00,0.0,1.8993,0.0009,408.05,0.30,8.4,16.2,138.25,21.89,24.61,36.33,0.04,-272.75,-272.75,-34,546,-926,16.4,11.6,-13.5,16.7,11.8,-13.1,5.73,2.43,-27.6,22.4
2013-05-21 01:53:00,0.0,1.8995,0.0010,408.00,0.27,9.2,19.1,138.24,21.90,24.62,36.33,0.04,-272.75,-272.75,-34,546,-926,16.4,11.7,-13.3,16.7,11.9,-12.9,5.73,2.42,-27.6,22.4
2013-05-21 01:54:00,0.0,1.8990,0.0010,408.10,0.28,6.0,13.8,138.24,21.90,24.62,36.33,0.04,-272.75,-272.75,-34,546,-926,16.5,11.7,-13.4,16.7,11.8,-13.0,5.73,2.42,-27.6,22.4
2013-05-21 01:55:00,0.0,1.8993,0.0008,408.18,0.32,10.2,17.1,138.24,21.90,24.62,36.32,0.04,-272.75,-272.75,-34,546,-926,16.5,11.9,-13.2,16.7,12.0,-12.8,5.73,2.42,-27.6,22.4
2013-05-21 01:56:00,0.0,1.8990,0.0008,408.03,0.32,10.8,19.3,138.24,21.90,24.62,36.33,0.04,-272.75,-272.75,-34,546,-926,16.5,11.9,-13.1,16.7,12.1,-12.8,5.73,2.43,-27.6,22.4
2013-05-21 01:57:00,0.0,1.8993,0.0009,408.09,0.30,9.0,17.1,138.24,21.91,24.61,36.32,0.04,-272.75,-272.75,-34,546,-926,16.5,11.6,-13.5,16.7,11.8,-13.1,5.73,2.44,-27.6,22.4
2013-05-21 01:58:00,0.0,1.8995,0.0008,408.11,0.29,9.3,17.7,138.24,21.91,24.61,36.33,0.04,-272.75,-272.75,-34,546,-926,16.5,11.5,-13.5,16.7,11.7,-13.1,5.73,2.44,-27.6,22.3
2013-05-21 01:59:00,0.0,1.8989,0.0008,407.92,0.35,12.7,21.5,138.24,21.92,24.62,36.34,0.04,-272.75,-272.75,-34,546,-926,16.5,11.5,-13.6,16.7,11.6,-13.2,5.73,2.45,-27.6,22.4
2013-05-21 02:00:00,0.0,1.8994,0.0008,407.91,0.27,13.3,20.5,138.24,21.92,24.61,36.33,0.04,-272.75,-272.75,-34,546,-926,16.5,11.6,-13.4,16.7,11.8,-13.1,5.73,2.46,-27.5,22.4
2013-05-21 02:01:00,0.0,1.8992,0.0010,408.14,0.28,9.7,15.9,138.24,21.92,24.62,36.33,0.04,-272.75,-272.74,-34,546,-926,16.5,11.5,-13.5,16.7,11.7,-13.1,5.73,2.46,-27.6,22.4
2013-05-21 02:02:00,0.0,1.8992,0.0009,408.01,0.30,3.7,9.7,138.24,21.93,24.62,36.33,0.04,-272.75,-272.75,-34,546,-926,16.5,11.5,-13.6,16.7,11.6,-13.2,5.73,2.46,-27.5,22.4
2013-05-21 02:03:00,0.0,1.8995,0.0009,407.99,0.27,7.3,17.6,138.24,21.93,24.62,36.34,0.04,-272.75,-272.75,-34,546,-926,16.5,11.4,-13.7,16.7,11.5,-13.3,5.73,2.45,-27.5,22.4
2013-05-21 02:04:00,0.0,1.8994,0.0009,408.14,0.31,3.3,11.5,138.24,21.94,24.62,36.32,0.04,-272.75,-272.75,-34,546,-926,16.5,11.3,-13.8,16.7,11.5,-13.4,5.73,2.45,-27.5,22.5
2013-05-21 02:05:00,0.0,1.8998,0.0009,408.00,0.28,10.2,18.6,138.24,21.95,24.62,36.33,0.04,-272.75,-272.75,-34,546,-926,16.5,11.3,-13.7,16.7,11.5,-13.3,5.73,2.45,-27.5,22.5
2013-05-21 02:06:00,0.0,1.9000,0.0008,408.06,0.31,7.3,16.1,138.24,21.95,24.62,36.33,0.04,-272.75,-272.75,-34,546,-926,16.5,11.4,-13.6,16.7,11.6,-13.2,5.73,2.44,-27.6,22.5
2013-05-21 02:07:00,0.0,1.8998,0.0009,408.04,0.30,4.5,11.1,138.24,21.96,24.62,36.33,0.04,-272.75,-272.75,-34,546,-926,16.5,11.4,-13.7,16.7,11.5,-13.3,5.73,2.43,-27.5,22.4
2013-05-21 02:08:00,0.0,1.8998,0.0008,408.10,0.32,5.5,12.5,138.24,21.97,24.62,36.32,0.04,-272.74,-272.75,-34,546,-926,16.5,11.6,-13.5,16.8,11.7,-13.1,5.73,2.43,-27.5,22.4
2013-05-21 02:09:00,0.0,1.8992,0.0007,408.06,0.29,8.5,17.9,138.24,21.97,24.62,36.33,0.04,-272.75,-272.75,-34,546,-926,16.5,11.6,-13.4,16.7,11.8,-13.1,5.73,2.43,-27.6,22.4
2013-05-21 02:10:00,0.0,1.8998,0.0010,408.09,0.33,3.5,9.6,138.24,21.97,24.62,36.33,0.04,-272.75,-272.75,-34,546,-926,16.5,11.5,-13.5,16.7,11.7,-13.1,5.73,2.42,-27.5,22.5
2013-05-21 02:11:00,0.0,1.8998,0.0009,408.07,0.30,5.1,14.0,138.24,21.97,24.62,36.33,0.04,-272.75,-272.75,-34,546,-926,16.5,11.6,-13.4,16.8,11.8,-13.0,5.73,2.42,-27.6,22.5
2013-05-21 02:12:00,0.0,1.8997,0.0009,408.17,0.29,8.7,18.6,138.24,21.98,24.62,36.32,0.04,-272.75,-272.75,-34,547,-926,16.5,11.6,-13.4,16.8,11.8,-13.0,5.73,2.42,-27.6,22.5
2013-05-21 02:13:00,0.0,1.8999,0.0008,408.06,0.30,6.0,18.4,138.24,21.98,24.61,36.33,0.04,-272.76,-272.75,-34,547,-926,16.6,11.5,-13.5,16.8,11.6,-13.2,5.73,2.43,-27.5,22.5
2013-05-21 02:14:00,0.0,1.8997,0.0009,408.21,0.28,11.0,20.1,138.24,21.98,24.61,36.31,0.04,-272.75,-272.75,-34,547,-926,16.6,11.6,-13.3,16.8,11.8,-13.0,5.73,2.43,-27.5,22.5
2013-05-21 02:15:00,0.0,1.8996,0.0009,408.11,0.29,8.8,17.6,138.24,21.99,24.62,36.33,0.04,-272.75,-272.75,-34,547,-926,16.5,11.8,-13.2,16.8,12.0,-12.8,5.73,2.44,-27.5,22.4
2013-05-21 02:16:00,0.0,1.8997,0.0008,408.00,0.30,11.3,21.2,138.24,21.99,24.62,36.33,0.04,-272.76,-272.75,-34,547,-926,16.6,11.9,-13.1,16.8,12.1,-12.7,5.73,2.44,-27.5,22.5